Location: Recife
(8.0585°S, 34.8848°W)
Time: 08:18:18
(UTC-03:00)

Altair - Pass Details

Date: 22 April 2026
Orbit: 1501 x 1682 km, 47.2° (Epoch: 11 May)

Event Time Altitude Azimuth Distance (km) Brightness Sun altitude
Rises 04:56:51 0° 200° (SSW) 4,780 9.8 -6.9°
Reaches altitude 10° 05:00:58 10° 185° (S) 3,825 9.4 -5.9°
Maximum altitude 05:08:05 22° 138° (SE) 3,020 9.5 -4.1°
Drops below altitude 10° 05:15:17 10° 91° (E) 3,910 11.4 -2.4°
Sets 05:19:29 0° 76° (ENE) 4,913 14.3 -1.4°
